Location: Unspecified
(49.2170°N, 0.0000°E)
Time: 15:16:40
(UTC+00:00)

Tiros 1 despin weight - Pass Details

Date: 25 January 2021
Orbit: 593 x 642 km, 48.2° (Epoch: 07 March)

Event Time Altitude Azimuth Distance (km) Brightness Sun altitude
Rises 13:47:49 0° 218° (SW) 2,892 ? 18.7°
Reaches altitude 10° 13:50:22 10° 207° (SSW) 1,980 ? 18.6°
Maximum altitude 13:54:16 29° 148° (SSE) 1,143 ? 18.3°
Drops below altitude 10° 13:58:08 10° 89° (E) 1,960 ? 18.0°
Sets 14:00:38 0° 78° (ENE) 2,858 ? 17.8°
